Погода в Мандреме

Индия     15°32′45″N   73°47′08″E
темп.,
°C
ветер,
м/с
пор.,
м/с
влажн.,
%
обл.,
%
осадки,
мм/ч
давл.,
гПа
погр.,
м
22 мая, вс
вс2223:30+28юз337492 0.0 1008468
02:30+27ююз3482100 0.1 1005419
05:30+28з347932 1.1 1006519
08:30+29з347414 0.9 1007549
11:30+29зюз457289 1.3 1007724
14:30+30з667464 0.7 1005781
17:30+29з5674100 1.2 1004677
20:30+29з45815 0.4 1006430
23 мая, пн
пн2323:30+28зюз457894 1.4 1006501
02:30+28з4579100 0.4 1005411
05:30+28зюз347899 1.3 1005454
08:30+29зюз4576100 0.7 1006599
11:30+29з5576100 1.1 1007753
14:30+30зсз4575100 0.1 1005751
17:30+29з447799 0.8 1005534
20:30+29з458098 1.4 1007458
24 мая, вт
вт2423:30+28з348088 2.1 1007285
02:30+28з4579100 0.3 1006612
05:30+28зсз567992 1.5 1007561
08:30+29зсз447798 0.4 1009691
11:30+29з557595 0.6 1009709
14:30+30з557496 0.0 1007704
17:30+29з5576100 0.1 1007665
20:30+29з46823 0.4 1009454
25 мая, ср
ср2523:30+29з56855 0.8 1010449
02:30+28зсз458259 0.1 1008439
05:30+28сз458090 0.2 1008463
08:30+29ссз45742 0.0 1010712
11:30+29зсз566911 0.0 1010672
14:30+30зсз77725 0.0 1007665
17:30+30з567516 0.0 1007742
20:30+29зсз468193 0.0 1009443
26 мая, чт
чт2623:30+29зсз46808 0.1 1010421
02:30+29сз677818 0.1 1008528
05:30+28ссз467712 0.1 1008409
08:30+29с347098 0.0 1010494
11:30+29з556885 0.0 1009608
14:30+30з566789 0.0 1007601
17:30+30з457283 0.0 1007710
20:30+29з4577100 0.4 1008314